Вернуться в каталог

COSMOS 1375 DEB

АктивенLEO
NORAD 16211·DEBRIS·🇷🇺 Russia

Запущен Jun 6, 1982 с Plesetsk Cosmodrome

Loading…

Ближайшие Пролёты (ближайшие 24 часа)

TLE

СвежийSource: Space-Track

Эпоха: Sep 14, 2026, 11:08 UTC

1 16211U 82055N   26257.46397763  .00000008  00000-0  98494-4 0  9994
2 16211  65.8351 164.8383 0026770  16.2147 159.2092 13.70483377 44916

Отслеживайте COSMOS 1375 DEB в реальном времени с AllMySat

Download on the App Store